Flag for Germany Weather past 2 weeks in Bruchsal, Baden-Württemberg, Germany

Now
45 °F

Clear.


Feels Like: 43 °F
Forecast: 55 / 72 °F
Wind: 3 mph from Northeast

Location: Karlsruhe - Baden Wurttemberg

Current Time: May 23, 2015 at 6:42:37 AM

Latest Report: May 23, 2015 at 5:50 AM


Visibility: 10 mi

Pressure: 30.09 "Hg

Humidity: 81%

Dew point: 39 °F

Location of BruchsalLocation

Historic Weather in Bruchsal — Graph

°F

Bruchsal temperature yesterday

Maximum temperature yesterday: 68 °F (at 4:50 PM)
Minimum temperature yesterday: 39 °F (at 4:50 AM)
Average temperature yesterday: 57 °F

Past Weeks' High & Low Weather Summary

 TemperatureHumidityPressure
High84 °F (May 12, 2:20 PM)94% (May 11, 4:50 AM)30.36 "Hg (May 11, 4:50 AM)
Low39 °F (May 22, 4:50 AM)26% (May 22, 4:50 PM)29.71 "Hg (May 18, 7:50 PM)
Average61 °F60%30.08 "Hg
* Reported May 8 5:20 AM — May 23 5:20 AM, Bruchsal, Weather by CustomWeather, © 2015

Note: Actual official high and low records may vary slightly from our data, if they occured in-between our weather recording intervals... More about our weather records

Advertising

Bruchsal weather history for previous 24 hours

 ConditionsComfort  
Time TempWeatherWind HumidityBarometerVisibility
5:20 AM
Sat, May 23
46 °FClear.3 mph76%30.09 "Hg10 mi
4:50 AM45 °FClear.5 mph81%30.12 "Hg10 mi
11:20 PM
Fri, May 22
52 °FClear.3 mph77%30.18 "Hg10 mi
10:50 PM54 °FClear.2 mph63%30.18 "Hg10 mi
10:20 PM55 °FCool.2 mph63%30.18 "HgN/A
9:50 PM57 °FSunny.1 mph55%30.18 "Hg10 mi
9:20 PM61 °FSunny.3 mph45%30.15 "Hg10 mi
8:50 PM63 °FSunny.2 mph42%30.15 "Hg10 mi
8:20 PM64 °FPassing clouds.5 mph40%30.15 "HgN/A
7:50 PM64 °FSunny.6 mph37%30.15 "Hg10 mi
7:20 PM64 °FPassing clouds.5 mph34%30.15 "HgN/A
6:50 PM66 °FPassing clouds.7 mph32%30.15 "HgN/A
6:20 PM66 °FPassing clouds.10 mph32%30.18 "HgN/A
5:50 PM66 °FPassing clouds.7 mph28%30.18 "HgN/A
5:20 PM66 °FPassing clouds.7 mph30%30.18 "HgN/A
4:50 PM68 °FPassing clouds.9 mph26%30.18 "HgN/A
4:20 PM66 °FPassing clouds.10 mph30%30.21 "HgN/A
3:50 PM64 °FPassing clouds.9 mph34%30.21 "HgN/A
3:20 PM66 °FPassing clouds.10 mph32%30.21 "HgN/A
2:50 PM66 °FPassing clouds.10 mph30%30.24 "HgN/A
2:20 PM66 °FPassing clouds.12 mph30%30.24 "HgN/A
1:50 PM64 °FSunny.12 mph32%30.24 "Hg10 mi
1:20 PM64 °FPassing clouds.10 mph32%30.27 "HgN/A
12:50 PM64 °FPassing clouds.12 mph30%30.27 "HgN/A
12:20 PM64 °FPassing clouds.9 mph34%30.27 "HgN/A
11:50 AM63 °FPassing clouds.8 mph34%30.30 "HgN/A
11:20 AM61 °FPassing clouds.8 mph42%30.30 "HgN/A
10:50 AM59 °FPassing clouds.8 mph48%30.30 "HgN/A
10:20 AM57 °FPassing clouds.6 mph51%30.30 "HgN/A
9:50 AM55 °FPassing clouds.6 mph59%30.30 "HgN/A
9:20 AM54 °FPassing clouds.5 mph63%30.33 "HgN/A
8:50 AM50 °FSunny.3 mph67%30.33 "Hg10 mi
8:20 AM50 °FSunny.2 mph71%30.33 "Hg10 mi
7:50 AM46 °FSunny.1 mph82%30.33 "Hg10 mi
7:20 AM46 °FSunny.No wind76%30.33 "Hg10 mi
6:50 AM41 °FSunny.No wind81%30.33 "Hg10 mi
6:20 AM39 °FClear.2 mph87%30.30 "Hg10 mi
Weather by CustomWeather, © 2015

See weather overviewHow to use our weather pages